| time (UTC) | temp F | wind direction | speed knots | gust knots | rain 1hr in | rain 24hr in | rain mn in | humidity % | barometer mb |
| 20260507093056 | 51 | 85 | 2.6 | 5.2 | 0.00 | 0.00 | 0.00 | 86 | 1020.0 |
| 20260507091552 | 51 | 55 | 2.6 | 7.8 | 0.00 | 0.00 | 0.00 | 85 | 1019.9 |
| 20260507090052 | 51 | 103 | 4.3 | 11.3 | 0.00 | 0.00 | 0.00 | 85 | 1019.3 |
| 20260507084555 | 52 | 98 | 4.3 | 7.8 | 0.00 | 0.00 | 0.00 | 85 | 1019.3 |
| 20260507083052 | 52 | 80 | 4.3 | 7.8 | 0.00 | 0.00 | 0.00 | 85 | 1019.5 |
| 20260507081551 | 52 | 47 | 3.5 | 6.1 | 0.00 | 0.00 | 0.00 | 85 | 1019.1 |
| 20260507080100 | 52 | 58 | 4.3 | 7.0 | 0.00 | 0.00 | 0.00 | 85 | 1018.9 |
| 20260507074601 | 52 | 65 | 2.6 | 7.8 | 0.00 | 0.00 | 0.00 | 85 | 1018.7 |
| 20260507073054 | 52 | 96 | 2.6 | 7.8 | 0.00 | 0.00 | 0.00 | 85 | 1018.7 |
| 20260507071550 | 52 | 70 | 1.7 | 7.8 | 0.00 | 0.00 | 0.00 | 84 | 1018.7 |
| 20260507070048 | 53 | 72 | 2.6 | 7.8 | 0.00 | 0.00 | 0.00 | 84 | 1018.4 |
| 20260507064551 | 53 | 72 | 3.5 | 6.1 | 0.00 | 0.00 | 0.00 | 83 | 1018.6 |
| 20260507063049 | 53 | 72 | 0.9 | 2.6 | 0.00 | 0.00 | 0.00 | 83 | 1018.5 |
| 20260507061545 | 53 | 105 | 0.0 | 2.6 | 0.00 | 0.00 | 0.00 | 83 | 1018.7 |
| 20260507060044 | 53 | 78 | 0.9 | 3.5 | 0.00 | 0.00 | 0.00 | 82 | 1018.4 |
| 20260507054623 | 53 | 94 | 0.0 | 2.6 | 0.00 | 0.00 | 0.00 | 81 | 1018.1 |
| 20260507053052 | 54 | 108 | 0.9 | 2.6 | 0.00 | 0.00 | 0.00 | 81 | 1017.9 |
| 20260507051549 | 54 | 0 | 0.0 | 1.7 | 0.00 | 0.00 | 0.00 | 80 | 1017.6 |
| 20260507050057 | 54 | 0 | 0.0 | 1.7 | 0.00 | 0.00 | 0.00 | 78 | 1017.7 |
| 20260507044550 | 55 | 89 | 0.0 | 2.6 | 0.00 | 0.00 | 0.00 | 78 | 1017.3 |
| 20260507043049 | 55 | 86 | 0.9 | 3.5 | 0.00 | 0.00 | 0.00 | 77 | 1017.1 |
| 20260507041549 | 56 | 96 | 1.7 | 5.2 | 0.00 | 0.00 | 0.00 | 77 | 1017.0 |
| 20260507040054 | 56 | 101 | 1.7 | 5.2 | 0.00 | 0.00 | 0.00 | 76 | 1016.8 |
| 20260507034557 | 56 | 75 | 2.6 | 6.1 | 0.00 | 0.00 | 0.00 | 76 | 1016.5 |
| 20260507033052 | 57 | 86 | 1.7 | 7.0 | 0.00 | 0.00 | 0.00 | 74 | 1016.2 |
| 20260507031603 | 57 | 102 | 3.5 | 10.4 | 0.00 | 0.00 | 0.00 | 73 | 1016.2 |
| 20260507030054 | 58 | 110 | 3.5 | 8.7 | 0.00 | 0.00 | 0.00 | 72 | 1016.2 |
| 20260507024547 | 59 | 120 | 4.3 | 9.6 | 0.00 | 0.00 | 0.00 | 71 | 1016.1 |
| 20260507023042 | 59 | 84 | 3.5 | 7.8 | 0.00 | 0.00 | 0.00 | 71 | 1015.9 |
| 20260507021550 | 59 | 85 | 3.5 | 8.7 | 0.00 | 0.00 | 0.00 | 69 | 1015.6 |
| 20260507020055 | 60 | 106 | 4.3 | 9.6 | 0.00 | 0.00 | 0.00 | 68 | 1015.4 |
| 20260507014551 | 61 | 87 | 5.2 | 9.6 | 0.00 | 0.00 | 0.00 | 67 | 1015.4 |
| 20260507013046 | 62 | 84 | 3.5 | 8.7 | 0.00 | 0.00 | 0.00 | 66 | 1015.4 |
| 20260507011549 | 63 | 70 | 4.3 | 11.3 | 0.00 | 0.00 | 0.00 | 64 | 1015.1 |
| 20260507010050 | 64 | 75 | 6.1 | 11.3 | 0.00 | 0.00 | 0.00 | 62 | 1014.8 |
| 20260507004554 | 65 | 86 | 3.5 | 9.6 | 0.00 | 0.00 | 0.00 | 60 | 1014.7 |
| 20260507003052 | 66 | 75 | 4.3 | 13.0 | 0.00 | 0.00 | 0.00 | 57 | 1014.4 |
| 20260507001555 | 66 | 75 | 5.2 | 12.2 | 0.00 | 0.00 | 0.00 | 57 | 1014.5 |
| 20260507000048 | 66 | 45 | 6.1 | 13.0 | 0.00 | 0.00 | 0.00 | 56 | 1014.4 |
| 20260506234549 | 67 | 70 | 6.1 | 12.2 | 0.00 | 0.00 | 0.00 | 55 | 1014.4 |
| 20260506233102 | 67 | 64 | 6.1 | 10.4 | 0.00 | 0.00 | 0.00 | 54 | 1014.3 |
| 20260506231546 | 68 | 53 | 7.0 | 10.4 | 0.00 | 0.00 | 0.00 | 55 | 1014.3 |
| 20260506230053 | 68 | 49 | 3.5 | 12.2 | 0.00 | 0.00 | 0.00 | 55 | 1014.0 |
| 20260506224552 | 69 | 24 | 4.3 | 11.3 | 0.00 | 0.00 | 0.00 | 54 | 1014.1 |
| 20260506223049 | 70 | 62 | 3.5 | 10.4 | 0.00 | 0.00 | 0.00 | 54 | 1013.8 |
| 20260506221551 | 70 | 51 | 3.5 | 8.7 | 0.00 | 0.00 | 0.00 | 53 | 1013.6 |
| 20260506220054 | 71 | 70 | 4.3 | 12.2 | 0.00 | 0.00 | 0.00 | 52 | 1013.4 |
| 20260506214552 | 71 | 58 | 3.5 | 8.7 | 0.00 | 0.00 | 0.00 | 52 | 1013.5 |
| 20260506213107 | 70 | 93 | 2.6 | 7.0 | 0.00 | 0.00 | 0.00 | 52 | 1013.6 |
| 20260506211549 | 70 | 106 | 3.5 | 8.7 | 0.00 | 0.00 | 0.00 | 54 | 1013.6 |
| 20260506210055 | 70 | 57 | 5.2 | 8.7 | 0.00 | 0.00 | 0.00 | 54 | 1014.0 |
| 20260506204553 | 70 | 58 | 5.2 | 12.2 | 0.00 | 0.00 | 0.00 | 54 | 1014.1 |
| 20260506203050 | 69 | 160 | 0.9 | 6.1 | 0.00 | 0.00 | 0.00 | 55 | 1014.4 |
| 20260506201550 | 68 | 7 | 3.5 | 8.7 | 0.00 | 0.00 | 0.00 | 57 | 1014.4 |
| 20260506200048 | 68 | 1 | 1.7 | 11.3 | 0.00 | 0.00 | 0.00 | 58 | 1014.7 |
| 20260506194604 | 66 | 44 | 3.5 | 9.6 | 0.00 | 0.00 | 0.00 | 60 | 1014.8 |
| 20260506193050 | 65 | 71 | 0.9 | 7.8 | 0.00 | 0.00 | 0.00 | 62 | 1015.0 |
| 20260506191555 | 64 | 32 | 3.5 | 7.0 | 0.00 | 0.00 | 0.00 | 65 | 1015.0 |
| 20260506190051 | 63 | 46 | 2.6 | 9.6 | 0.00 | 0.00 | 0.00 | 66 | 1015.4 |
| 20260506184553 | 62 | 53 | 6.1 | 9.6 | 0.00 | 0.00 | 0.00 | 67 | 1015.8 |
| 20260506183050 | 61 | 40 | 4.3 | 10.4 | 0.00 | 0.00 | 0.00 | 70 | 1015.9 |
| 20260506181549 | 61 | 46 | 7.8 | 13.0 | 0.00 | 0.00 | 0.00 | 68 | 1016.0 |
| 20260506174550 | 60 | 78 | 5.2 | 10.4 | 0.00 | 0.00 | 0.00 | 72 | 1016.3 |
| 20260506173058 | 58 | 71 | 7.0 | 12.2 | 0.00 | 0.00 | 0.00 | 73 | 1016.2 |
| 20260506171558 | 57 | 51 | 5.2 | 12.2 | 0.00 | 0.00 | 0.00 | 75 | 1016.1 |
| 20260506170106 | 55 | 66 | 7.0 | 12.2 | 0.00 | 0.00 | 0.00 | 77 | 1016.1 |
| 20260506164556 | 54 | 99 | 9.6 | 13.9 | 0.00 | 0.00 | 0.00 | 78 | 1016.2 |
| 20260506163111 | 54 | 53 | 7.8 | 14.8 | 0.00 | 0.00 | 0.00 | 80 | 1016.4 |
| 20260506161551 | 54 | 34 | 11.3 | 17.4 | 0.00 | 0.00 | 0.00 | 79 | 1016.1 |
| 20260506160055 | 55 | 64 | 11.3 | 16.5 | 0.00 | 0.00 | 0.00 | 80 | 1015.6 |
| 20260506154610 | 53 | 74 | 10.4 | 17.4 | 0.00 | 0.00 | 0.00 | 81 | 1015.7 |
| 20260506153054 | 53 | 44 | 8.7 | 15.6 | 0.00 | 0.00 | 0.00 | 81 | 1015.7 |
| 20260506151557 | 53 | 63 | 8.7 | 17.4 | 0.00 | 0.00 | 0.00 | 81 | 1015.5 |
| 20260506150051 | 54 | 51 | 10.4 | 18.2 | 0.00 | 0.00 | 0.00 | 80 | 1015.2 |
| 20260506144549 | 53 | 43 | 14.8 | 22.6 | 0.00 | 0.00 | 0.00 | 80 | 1014.9 |
| 20260506143101 | 52 | 70 | 12.2 | 20.0 | 0.00 | 0.00 | 0.00 | 82 | 1015.1 |
| 20260506141550 | 52 | 63 | 8.7 | 15.6 | 0.00 | 0.00 | 0.00 | 82 | 1015.1 |
| 20260506140054 | 51 | 70 | 9.6 | 15.6 | 0.00 | 0.00 | 0.00 | 83 | 1015.3 |
| 20260506134556 | 51 | 86 | 7.0 | 14.8 | 0.00 | 0.00 | 0.00 | 83 | 1015.0 |
| 20260506133048 | 51 | 80 | 6.1 | 13.9 | 0.00 | 0.00 | 0.00 | 84 | 1015.1 |
| 20260506131551 | 51 | 67 | 8.7 | 13.9 | 0.00 | 0.00 | 0.00 | 85 | 1015.1 |
| 20260506130048 | 51 | 92 | 8.7 | 16.5 | 0.00 | 0.00 | 0.00 | 85 | 1014.6 |
| 20260506124542 | 51 | 70 | 7.8 | 14.8 | 0.00 | 0.00 | 0.00 | 85 | 1014.3 |
| 20260506123052 | 51 | 101 | 4.3 | 13.9 | 0.00 | 0.00 | 0.00 | 86 | 1014.4 |
| 20260506121547 | 51 | 76 | 7.0 | 11.3 | 0.00 | 0.00 | 0.00 | 87 | 1014.2 |
| 20260506114558 | 51 | 117 | 6.1 | 12.2 | 0.00 | 0.00 | 0.00 | 85 | 1013.5 |
| 20260506113053 | 51 | 67 | 8.7 | 13.0 | 0.00 | 0.00 | 0.00 | 85 | 1012.9 |
| 20260506111548 | 51 | 95 | 7.0 | 13.0 | 0.00 | 0.00 | 0.00 | 85 | 1012.8 |
| 20260506110055 | 51 | 89 | 7.0 | 13.0 | 0.00 | 0.00 | 0.00 | 86 | 1012.5 |
| 20260506104550 | 51 | 60 | 8.7 | 12.2 | 0.00 | 0.00 | 0.00 | 87 | 1012.3 |
| 20260506103049 | 51 | 94 | 7.8 | 13.9 | 0.00 | 0.00 | 0.00 | 87 | 1012.2 |
| 20260506101601 | 51 | 90 | 6.1 | 10.4 | 0.00 | 0.00 | 0.00 | 87 | 1012.0 |
| 20260506100048 | 51 | 79 | 6.1 | 10.4 | 0.00 | 0.00 | 0.00 | 87 | 1012.1 |
| 20260506094606 | 51 | 51 | 5.2 | 9.6 | 0.00 | 0.00 | 0.00 | 87 | 1011.9 |